Location: Gouy
(50.0008°N, 3.2556°E)
Time: 03:39:30
(UTC+00:00)

Cosmos 1782 Rocket - Pass Details

Date: 21 August 2024
Orbit: 603 x 628 km, 82.5° (Epoch: 11 September)

Event Time Altitude Azimuth Distance (km) Brightness Sun altitude
Exits shadow 03:09:19 13° 185° (S) 1,828 5.6 -14.3°
Maximum altitude 03:13:20 81° 99° (E) 642 3.6 -13.8°
Drops below altitude 10° 03:17:49 10° 12° (NNE) 2,019 6.9 -13.2°
Sets 03:20:04 0° 11° (NNE) 2,931 7.8 -12.9°
